EW0603 Weather Reports


Display with metric or nautical units.
time (UTC)temp
F
wind
direction
speed
MPH
gust
MPH
rain 1hr
in
rain 24hr
in
rain mn
in
humidity
%
barometer
mb
20260902205556 92 276 3.0 9.0 0.00 0.00 0.00 59 1009.6
20260902205232 92 286 4.0 9.0 0.00 0.00 0.00 58 1009.5
20260902205125 92 246 3.0 9.0 0.00 0.00 0.00 58 1009.5
20260902205021 93 242 3.0 9.0 0.00 0.00 0.00 58 1009.5
20260902204918 93 257 3.0 9.0 0.00 0.00 0.00 58 1009.5
20260902204813 93 252 3.0 9.0 0.00 0.00 0.00 58 1009.6
20260902204448 93 232 3.0 9.0 0.00 0.00 0.00 58 1009.5
20260902204344 93 247 3.0 9.0 0.00 0.00 0.00 58 1009.6
20260902204237 93 290 3.0 9.0 0.00 0.00 0.00 58 1009.5
20260902204133 93 263 3.0 8.0 0.00 0.00 0.00 58 1009.6
20260902203811 93 239 3.0 7.0 0.00 0.00 0.00 58 1009.6
20260902203228 93 265 3.0 7.0 0.00 0.00 0.00 58 1009.7
20260902202903 93 241 2.0 7.0 0.00 0.00 0.00 59 1009.8
20260902202758 93 298 2.0 7.0 0.00 0.00 0.00 58 1009.8
20260902202652 93 273 2.0 7.0 0.00 0.00 0.00 59 1009.8
20260902202545 92 175 2.0 9.0 0.00 0.00 0.00 59 1009.7
20260902202442 92 276 3.0 9.0 0.00 0.00 0.00 58 1009.8
20260902202337 92 219 2.0 9.0 0.00 0.00 0.00 59 1009.8
20260902202233 92 253 2.0 9.0 0.00 0.00 0.00 58 1009.8
20260902202127 93 245 2.0 9.0 0.00 0.00 0.00 59 1009.8
20260902202022 93 263 3.0 9.0 0.00 0.00 0.00 58 1009.9
20260902201920 93 256 3.0 9.0 0.00 0.00 0.00 58 1009.9
20260902201336 93 200 3.0 9.0 0.00 0.00 0.00 58 1010.0
20260902201232 93 221 3.0 9.0 0.00 0.00 0.00 58 1010.0
20260902201125 93 246 3.0 9.0 0.00 0.00 0.00 58 1010.0
20260902201020 93 258 3.0 9.0 0.00 0.00 0.00 58 1010.0
20260902200917 93 231 3.0 9.0 0.00 0.00 0.00 58 1010.0
20260902200812 93 212 3.0 9.0 0.00 0.00 0.00 58 1010.0
20260902200705 93 185 3.0 9.0 0.00 0.00 0.00 58 1010.1
20260902200559 93 234 3.0 7.0 0.00 0.00 0.00 58 1010.1
20260902200456 93 217 3.0 7.0 0.00 0.00 0.00 58 1010.1
20260902200352 93 257 3.0 7.0 0.00 0.00 0.00 59 1010.1
20260902200248 92 229 3.0 7.0 0.00 0.00 0.00 59 1010.1
20260902200144 92 196 3.0 7.0 0.00 0.00 0.00 58 1010.1
20260902200041 92 200 2.0 7.0 0.00 0.00 0.00 58 1010.1
20260902195939 92 242 2.0 7.0 0.00 0.00 0.00 58 1010.1
20260902195832 92 284 2.0 7.0 0.00 0.00 0.00 58 1010.1
20260902195726 92 244 2.0 7.0 0.00 0.00 0.00 59 1010.1
20260902195618 92 192 2.0 12.0 0.00 0.00 0.00 59 1010.1
20260902195513 92 246 2.0 12.0 0.00 0.00 0.00 59 1010.1
20260902195411 92 220 2.0 12.0 0.00 0.00 0.00 58 1010.2
20260902195307 92 261 2.0 12.0 0.00 0.00 0.00 59 1010.2
20260902195205 92 222 2.0 12.0 0.00 0.00 0.00 61 1010.2
20260902195059 92 234 2.0 12.0 0.00 0.00 0.00 58 1010.2
20260902194953 92 202 2.0 12.0 0.00 0.00 0.00 59 1010.2
20260902194851 92 237 3.0 12.0 0.00 0.00 0.00 59 1010.2
20260902194746 92 215 3.0 12.0 0.00 0.00 0.00 58 1010.3
20260902194643 92 250 3.0 12.0 0.00 0.00 0.00 58 1010.3
20260902194538 92 142 4.0 12.0 0.00 0.00 0.00 59 1010.3
20260902194435 92 248 4.0 12.0 0.00 0.00 0.00 59 1010.3
20260902194329 92 216 5.0 12.0 0.00 0.00 0.00 59 1010.3
20260902194222 92 168 5.0 12.0 0.00 0.00 0.00 58 1010.3
20260902193856 92 268 4.0 12.0 0.00 0.00 0.00 58 1010.3
20260902193749 92 277 4.0 12.0 0.00 0.00 0.00 59 1010.4
20260902193647 92 280 4.0 12.0 0.00 0.00 0.00 58 1010.3
20260902193543 92 282 4.0 10.0 0.00 0.00 0.00 59 1010.4
20260902193438 93 257 4.0 10.0 0.00 0.00 0.00 58 1010.4
20260902193336 93 264 3.0 10.0 0.00 0.00 0.00 58 1010.5
20260902193231 93 276 3.0 10.0 0.00 0.00 0.00 59 1010.5
20260902193128 93 315 3.0 10.0 0.00 0.00 0.00 61 1010.4
20260902192802 92 244 4.0 9.0 0.00 0.00 0.00 59 1010.5
20260902192439 92 240 3.0 11.0 0.00 0.00 0.00 59 1010.5
20260902192336 92 274 3.0 11.0 0.00 0.00 0.00 61 1010.5
20260902192233 92 296 3.0 11.0 0.00 0.00 0.00 59 1010.5
20260902192131 92 290 3.0 11.0 0.00 0.00 0.00 58 1010.5
20260902192024 92 210 2.0 11.0 0.00 0.00 0.00 60 1010.6
20260902191218 92 224 3.0 11.0 0.00 0.00 0.00 60 1010.6
20260902191113 92 297 3.0 11.0 0.00 0.00 0.00 59 1010.6
20260902191006 92 298 3.0 11.0 0.00 0.00 0.00 58 1010.6
20260902190903 92 279 3.0 11.0 0.00 0.00 0.00 58 1010.7
20260902190758 92 188 4.0 11.0 0.00 0.00 0.00 58 1010.7
20260902190434 92 281 3.0 10.0 0.00 0.00 0.00 58 1010.6
20260902190328 92 234 3.0 7.0 0.00 0.00 0.00 58 1010.7
20260902190222 92 227 3.0 7.0 0.00 0.00 0.00 58 1010.7
20260902190115 92 294 3.0 7.0 0.00 0.00 0.00 58 1010.7
20260902190009 92 267 3.0 8.0 0.00 0.00 0.00 57 1010.7
20260902185902 92 206 3.0 8.0 0.00 0.00 0.00 58 1010.7
20260902185755 92 281 3.0 8.0 0.00 0.00 0.00 59 1010.7
20260902185652 92 230 3.0 8.0 0.00 0.00 0.00 59 1010.7
20260902185549 92 284 3.0 8.0 0.00 0.00 0.00 58 1010.7
20260902185446 92 263 3.0 8.0 0.00 0.00 0.00 58 1010.7
20260902184901 92 235 2.0 8.0 0.00 0.00 0.00 59 1010.6
20260902184756 92 256 2.0 8.0 0.00 0.00 0.00 59 1010.6
20260902184654 92 234 2.0 8.0 0.00 0.00 0.00 61 1010.6
20260902184332 92 256 2.0 8.0 0.00 0.00 0.00 61 1010.6
20260902184226 92 242 2.0 8.0 0.00 0.00 0.00 59 1010.6
20260902184120 92 265 2.0 8.0 0.00 0.00 0.00 60 1010.6
20260902184018 91 263 1.0 6.0 0.00 0.00 0.00 59 1010.7
20260902183651 91 273 2.0 7.0 0.00 0.00 0.00 60 1010.7
20260902183546 91 315 2.0 7.0 0.00 0.00 0.00 59 1010.8
20260902183442 91 257 2.0 7.0 0.00 0.00 0.00 60 1010.7
20260902183337 91 244 2.0 7.0 0.00 0.00 0.00 60 1010.7
20260902183235 91 258 2.0 7.0 0.00 0.00 0.00 59 1010.8
20260902183129 91 250 2.0 7.0 0.00 0.00 0.00 61 1010.8
20260902183021 91 248 3.0 7.0 0.00 0.00 0.00 60 1010.8
20260902182915 92 255 3.0 7.0 0.00 0.00 0.00 60 1010.9
20260902182808 92 261 3.0 7.0 0.00 0.00 0.00 61 1010.8
20260902182706 92 234 3.0 7.0 0.00 0.00 0.00 60 1010.8
20260902182602 92 233 3.0 7.0 0.00 0.00 0.00 60 1010.9
20260902182455 92 290 3.0 7.0 0.00 0.00 0.00 58 1010.9
20260902182353 92 266 3.0 7.0 0.00 0.00 0.00 59 1010.9
20260902182030 91 281 3.0 7.0 0.00 0.00 0.00 60 1010.9
20260902181923 91 265 3.0 10.0 0.00 0.00 0.00 60 1011.0
20260902181817 91 290 3.0 10.0 0.00 0.00 0.00 60 1011.0
20260902181713 91 275 4.0 10.0 0.00 0.00 0.00 59 1011.0
20260902181611 91 263 4.0 10.0 0.00 0.00 0.00 60 1010.9
20260902181243 91 277 5.0 10.0 0.00 0.00 0.00 59 1011.0
20260902181137 91 244 5.0 10.0 0.00 0.00 0.00 59 1011.0
20260902181029 91 288 5.0 10.0 0.00 0.00 0.00 58 1011.0
20260902180704 91 0 4.0 10.0 0.00 0.00 0.00 58 1011.0
20260902180601 91 274 4.0 10.0 0.00 0.00 0.00 58 1011.0
20260902180454 91 281 4.0 10.0 0.00 0.00 0.00 58 1011.0
20260902180347 91 273 4.0 10.0 0.00 0.00 0.00 58 1011.0
20260902180243 91 0 4.0 10.0 0.00 0.00 0.00 60 1011.1
20260902180138 91 234 4.0 10.0 0.00 0.00 0.00 58 1011.1
20260902180034 91 250 4.0 10.0 0.00 0.00 0.00 58 1011.1
20260902175926 91 295 4.0 9.0 0.00 0.00 0.00 59 1011.1
20260902175819 91 259 4.0 9.0 0.00 0.00 0.00 58 1011.1
20260902175714 91 230 3.0 9.0 0.00 0.00 0.00 59 1011.1
20260902175609 91 279 3.0 9.0 0.00 0.00 0.00 60 1011.1
20260902175244 91 290 4.0 9.0 0.00 0.00 0.00 59 1011.1
20260902175140 91 258 4.0 9.0 0.00 0.00 0.00 58 1011.2
20260902175037 91 265 4.0 9.0 0.00 0.00 0.00 59 1011.3
20260902174930 91 245 4.0 9.0 0.00 0.00 0.00 61 1011.3
20260902174824 91 270 4.0 9.0 0.00 0.00 0.00 61 1011.3
20260902174718 91 278 5.0 9.0 0.00 0.00 0.00 59 1011.3
20260902174616 91 284 5.0 9.0 0.00 0.00 0.00 59 1011.3
20260902174509 91 288 5.0 9.0 0.00 0.00 0.00 59 1011.3
20260902174406 91 296 5.0 8.0 0.00 0.00 0.00 59 1011.3
20260902174302 91 307 5.0 8.0 0.00 0.00 0.00 61 1011.3
20260902174158 91 281 4.0 11.0 0.00 0.00 0.00 61 1011.3
20260902174055 91 287 4.0 11.0 0.00 0.00 0.00 61 1011.3
20260902173949 90 301 4.0 11.0 0.00 0.00 0.00 60 1011.3
20260902173626 91 281 4.0 11.0 0.00 0.00 0.00 59 1011.3
20260902173523 91 331 4.0 11.0 0.00 0.00 0.00 61 1011.4
20260902173415 91 281 4.0 11.0 0.00 0.00 0.00 60 1011.4
20260902173051 91 249 5.0 13.0 0.00 0.00 0.00 61 1011.5
20260902172724 90 255 5.0 13.0 0.00 0.00 0.00 61 1011.5
20260902172619 90 279 5.0 13.0 0.00 0.00 0.00 61 1011.6
20260902172517 90 246 5.0 13.0 0.00 0.00 0.00 60 1011.5
20260902172411 90 307 5.0 13.0 0.00 0.00 0.00 60 1011.5
20260902172308 90 274 5.0 13.0 0.00 0.00 0.00 61 1011.5
20260902172201 90 278 6.0 13.0 0.00 0.00 0.00 59 1011.5
20260902172057 90 289 6.0 13.0 0.00 0.00 0.00 59 1011.6
20260902171955 90 273 6.0 13.0 0.00 0.00 0.00 59 1011.5
20260902171850 90 314 6.0 13.0 0.00 0.00 0.00 60 1011.5
20260902171745 90 269 6.0 13.0 0.00 0.00 0.00 60 1011.6
20260902171639 90 287 6.0 13.0 0.00 0.00 0.00 59 1011.5
20260902171537 90 289 6.0 13.0 0.00 0.00 0.00 59 1011.5
20260902171434 90 266 6.0 13.0 0.00 0.00 0.00 59 1011.6
20260902171327 90 266 6.0 13.0 0.00 0.00 0.00 59 1011.6
20260902171223 90 254 5.0 13.0 0.00 0.00 0.00 58 1011.5
20260902171118 90 267 5.0 12.0 0.00 0.00 0.00 59 1011.6
20260902171013 90 246 5.0 12.0 0.00 0.00 0.00 59 1011.6
20260902170908 90 262 5.0 12.0 0.00 0.00 0.00 59 1011.6
20260902170804 90 277 4.0 12.0 0.00 0.00 0.00 59 1011.6
20260902170438 90 289 3.0 12.0 0.00 0.00 0.00 62 1011.6
20260902170335 90 268 3.0 12.0 0.00 0.00 0.00 62 1011.6
20260902170014 90 261 3.0 9.0 0.00 0.00 0.00 62 1011.6
20260902165206 91 259 2.0 8.0 0.00 0.00 0.00 61 1011.7
20260902165059 90 265 2.0 6.0 0.00 0.00 0.00 60 1011.6
20260902164955 90 194 2.0 6.0 0.00 0.00 0.00 61 1011.6
20260902164849 91 158 1.0 6.0 0.00 0.00 0.00 61 1011.6
20260902164742 90 180 1.0 6.0 0.00 0.00 0.00 61 1011.6
20260902164639 90 185 1.0 8.0 0.00 0.00 0.00 62 1011.6
20260902164313 90 172 1.0 8.0 0.00 0.00 0.00 62 1011.7
20260902164211 90 195 1.0 8.0 0.00 0.00 0.00 63 1011.7
20260902164109 90 173 2.0 8.0 0.00 0.00 0.00 63 1011.7
20260902164006 90 186 2.0 8.0 0.00 0.00 0.00 63 1011.7
20260902163859 90 221 2.0 8.0 0.00 0.00 0.00 63 1011.7
20260902163534 90 189 2.0 8.0 0.00 0.00 0.00 64 1011.7
20260902163428 90 219 2.0 8.0 0.00 0.00 0.00 64 1011.7
20260902163325 90 279 2.0 8.0 0.00 0.00 0.00 63 1011.7
20260902163000 90 221 2.0 8.0 0.00 0.00 0.00 63 1011.7
20260902162856 90 209 2.0 8.0 0.00 0.00 0.00 63 1011.8
20260902162750 90 252 1.0 8.0 0.00 0.00 0.00 64 1011.7
20260902162644 90 241 1.0 6.0 0.00 0.00 0.00 64 1011.7
20260902162537 90 252 1.0 6.0 0.00 0.00 0.00 64 1011.6
20260902162432 90 219 1.0 6.0 0.00 0.00 0.00 65 1011.7
20260902162330 89 224 1.0 8.0 0.00 0.00 0.00 65 1011.7
20260902162227 89 226 1.0 8.0 0.00 0.00 0.00 64 1011.7
20260902162124 89 220 1.0 8.0 0.00 0.00 0.00 65 1011.8
20260902162017 89 269 1.0 8.0 0.00 0.00 0.00 66 1011.7
20260902161912 89 269 2.0 8.0 0.00 0.00 0.00 66 1011.8
20260902161808 89 263 2.0 8.0 0.00 0.00 0.00 67 1011.8
20260902161700 89 263 3.0 8.0 0.00 0.00 0.00 67 1011.8
20260902161332 89 290 3.0 9.0 0.00 0.00 0.00 64 1011.8
20260902161012 89 279 3.0 9.0 0.00 0.00 0.00 65 1011.8
20260902160909 89 269 3.0 9.0 0.00 0.00 0.00 65 1011.8
20260902160806 89 0 3.0 9.0 0.00 0.00 0.00 64 1011.8
20260902160225 88 285 2.0 7.0 0.00 0.00 0.00 66 1011.8
20260902160122 88 290 2.0 7.0 0.00 0.00 0.00 68 1011.8
20260902160016 88 225 2.0 7.0 0.00 0.00 0.00 67 1011.9
20260902155909 88 215 2.0 7.0 0.00 0.00 0.00 67 1011.8
20260902155804 88 268 2.0 7.0 0.00 0.00 0.00 68 1011.8
20260902155701 88 273 2.0 7.0 0.00 0.00 0.00 67 1011.8
20260902155559 88 230 2.0 7.0 0.00 0.00 0.00 67 1011.8
20260902155456 88 253 2.0 7.0 0.00 0.00 0.00 67 1011.8
20260902155351 88 271 2.0 7.0 0.00 0.00 0.00 68 1011.8
20260902155244 88 259 2.0 5.0 0.00 0.00 0.00 67 1011.8
20260902155137 88 251 2.0 9.0 0.00 0.00 0.00 69 1011.9
20260902155031 88 250 3.0 9.0 0.00 0.00 0.00 67 1011.8
20260902154928 88 227 2.0 8.0 0.00 0.00 0.00 67 1011.8
20260902154607 88 279 3.0 10.0 0.00 0.00 0.00 66 1011.9
20260902154459 88 248 3.0 10.0 0.00 0.00 0.00 66 1011.9
20260902154355 88 272 3.0 10.0 0.00 0.00 0.00 66 1011.9
20260902154252 88 240 3.0 10.0 0.00 0.00 0.00 67 1011.9
20260902154147 87 262 3.0 10.0 0.00 0.00 0.00 66 1011.9
20260902154043 87 301 3.0 10.0 0.00 0.00 0.00 67 1012.0
20260902153938 87 0 3.0 10.0 0.00 0.00 0.00 67 1012.0
20260902153833 87 302 4.0 10.0 0.00 0.00 0.00 66 1012.0
20260902153509 87 229 3.0 10.0 0.00 0.00 0.00 66 1012.0
20260902153402 87 246 3.0 10.0 0.00 0.00 0.00 67 1012.0
20260902153255 87 282 3.0 10.0 0.00 0.00 0.00 69 1012.0
20260902153151 87 265 3.0 10.0 0.00 0.00 0.00 69 1012.0
20260902153047 87 281 3.0 10.0 0.00 0.00 0.00 68 1012.0
20260902152943 87 253 3.0 10.0 0.00 0.00 0.00 68 1012.0
20260902152617 87 273 2.0 9.0 0.00 0.00 0.00 69 1012.0
20260902152253 87 242 2.0 9.0 0.00 0.00 0.00 69 1012.0
20260902152149 87 265 2.0 9.0 0.00 0.00 0.00 68 1011.9
20260902152045 87 239 2.0 9.0 0.00 0.00 0.00 69 1012.0
20260902151941 87 246 2.0 7.0 0.00 0.00 0.00 71 1012.0
20260902151834 87 250 2.0 7.0 0.00 0.00 0.00 71 1012.0
20260902151508 86 259 3.0 9.0 0.00 0.00 0.00 72 1012.0
20260902151145 86 310 3.0 9.0 0.00 0.00 0.00 70 1012.0
20260902150822 86 285 3.0 9.0 0.00 0.00 0.00 71 1011.9
20260902150715 86 256 3.0 9.0 0.00 0.00 0.00 71 1011.9
20260902150609 86 234 3.0 9.0 0.00 0.00 0.00 71 1012.0
20260902150505 86 273 3.0 9.0 0.00 0.00 0.00 71 1011.9
20260902150402 86 257 3.0 9.0 0.00 0.00 0.00 71 1012.0
20260902150032 86 302 3.0 9.0 0.00 0.00 0.00 70 1012.0
20260902145927 86 263 2.0 9.0 0.00 0.00 0.00 69 1011.9
20260902145825 86 246 2.0 9.0 0.00 0.00 0.00 70 1011.9
20260902145719 86 281 2.0 9.0 0.00 0.00 0.00 74 1011.9
20260902145616 86 279 1.0 6.0 0.00 0.00 0.00 72 1011.9
20260902145251 85 284 2.0 6.0 0.00 0.00 0.00 72 1011.9
20260902145144 85 267 2.0 7.0 0.00 0.00 0.00 73 1011.9
20260902145040 85 277 2.0 7.0 0.00 0.00 0.00 74 1011.9
20260902144934 85 278 2.0 7.0 0.00 0.00 0.00 74 1011.9
20260902144827 85 257 2.0 7.0 0.00 0.00 0.00 73 1011.9
20260902144724 85 242 2.0 7.0 0.00 0.00 0.00 74 1011.9
20260902144359 85 302 2.0 7.0 0.00 0.00 0.00 74 1012.0
20260902144254 85 304 2.0 7.0 0.00 0.00 0.00 74 1011.9
20260902144151 85 296 2.0 7.0 0.00 0.00 0.00 74 1011.9
20260902144044 85 259 2.0 7.0 0.00 0.00 0.00 74 1011.9
20260902143943 84 259 2.0 7.0 0.00 0.00 0.00 74 1011.9
20260902143835 84 263 2.0 7.0 0.00 0.00 0.00 75 1011.9
20260902143728 84 286 2.0 7.0 0.00 0.00 0.00 74 1012.0
20260902143625 84 288 3.0 7.0 0.00 0.00 0.00 74 1012.0
20260902143516 84 286 2.0 7.0 0.00 0.00 0.00 75 1012.0
20260902143414 84 294 2.0 7.0 0.00 0.00 0.00 74 1011.9
20260902143307 84 270 2.0 7.0 0.00 0.00 0.00 74 1011.9
20260902142942 84 255 2.0 6.0 0.00 0.00 0.00 76 1011.9
20260902142834 84 294 2.0 6.0 0.00 0.00 0.00 74 1011.9
20260902142727 84 277 2.0 4.0 0.00 0.00 0.00 76 1011.9
20260902142623 84 280 2.0 4.0 0.00 0.00 0.00 76 1011.9
20260902142256 84 293 2.0 7.0 0.00 0.00 0.00 76 1011.9
20260902142153 83 292 2.0 7.0 0.00 0.00 0.00 75 1011.8
20260902141826 83 277 2.0 6.0 0.00 0.00 0.00 76 1011.9
20260902141723 83 281 2.0 6.0 0.00 0.00 0.00 76 1011.9
20260902141620 83 284 1.0 6.0 0.00 0.00 0.00 77 1011.9
20260902141517 83 275 1.0 6.0 0.00 0.00 0.00 78 1011.9
20260902141413 83 276 2.0 6.0 0.00 0.00 0.00 77 1011.8
20260902140607 82 273 2.0 5.0 0.00 0.00 0.00 77 1011.8
20260902140505 82 287 2.0 5.0 0.00 0.00 0.00 78 1011.9
20260902140359 82 264 2.0 5.0 0.00 0.00 0.00 78 1011.8
20260902140253 82 284 2.0 5.0 0.00 0.00 0.00 79 1011.8
20260902140149 82 278 2.0 5.0 0.00 0.00 0.00 79 1011.8
20260902140047 82 278 2.0 5.0 0.00 0.00 0.00 78 1011.7
20260902135945 82 279 2.0 5.0 0.00 0.00 0.00 79 1011.8
20260902135840 82 270 2.0 5.0 0.00 0.00 0.00 79 1011.8
20260902135737 82 286 2.0 5.0 0.00 0.00 0.00 79 1011.8
20260902135631 82 271 2.0 5.0 0.00 0.00 0.00 80 1011.8
20260902135524 82 286 2.0 5.0 0.00 0.00 0.00 79 1011.7
20260902135417 82 287 2.0 5.0 0.00 0.00 0.00 79 1011.7
20260902135313 81 279 2.0 5.0 0.00 0.00 0.00 78 1011.8
20260902135207 81 274 1.0 5.0 0.00 0.00 0.00 79 1011.8
20260902135102 81 295 1.0 5.0 0.00 0.00 0.00 79 1011.7
20260902134022 81 246 0.0 5.0 0.00 0.00 0.00 80 1011.7
20260902133915 81 275 0.0 4.0 0.00 0.00 0.00 81 1011.7
20260902133812 81 261 0.0 2.0 0.00 0.00 0.00 80 1011.7
20260902133705 81 273 0.0 2.0 0.00 0.00 0.00 81 1011.7
20260902133559 81 271 0.0 3.0 0.00 0.00 0.00 80 1011.7
20260902133454 81 271 0.0 3.0 0.00 0.00 0.00 81 1011.7
20260902133348 81 295 0.0 2.0 0.00 0.00 0.00 81 1011.7
20260902133241 81 288 0.0 2.0 0.00 0.00 0.00 81 1011.8
20260902133135 81 288 0.0 2.0 0.00 0.00 0.00 81 1011.7
20260902133031 81 289 0.0 2.0 0.00 0.00 0.00 81 1011.8
20260902132710 81 321 0.0 0.0 0.00 0.00 0.00 81 1011.9
20260902132603 81 321 0.0 3.0 0.00 0.00 0.00 81 1011.9
20260902132501 81 322 0.0 3.0 0.00 0.00 0.00 80 1012.0
20260902132356 81 323 0.0 3.0 0.00 0.00 0.00 80 1012.0
20260902132251 81 325 0.0 3.0 0.00 0.00 0.00 81 1012.0
20260902132148 81 325 0.0 3.0 0.00 0.00 0.00 81 1012.0
20260902131822 81 328 0.0 0.0 0.00 0.00 0.00 81 1012.0
20260902131715 81 328 0.0 0.0 0.00 0.00 0.00 82 1012.0
20260902131612 80 329 0.0 0.0 0.00 0.00 0.00 81 1012.1
20260902131510 80 329 0.0 6.0 0.00 0.00 0.00 81 1012.1
20260902131408 80 328 0.0 6.0 0.00 0.00 0.00 82 1012.1
20260902131306 80 333 0.0 6.0 0.00 0.00 0.00 82 1012.1
20260902131201 80 273 0.0 6.0 0.00 0.00 0.00 82 1012.1
20260902130839 80 269 0.0 5.0 0.00 0.00 0.00 81 1011.9
20260902130518 80 279 0.0 0.0 0.00 0.00 0.00 82 1011.9
20260902130411 80 290 0.0 0.0 0.00 0.00 0.00 83 1011.9
20260902130309 80 290 0.0 0.0 0.00 0.00 0.00 83 1011.9
20260902125944 79 293 0.0 0.0 0.00 0.00 0.00 83 1011.9
20260902125841 79 301 0.0 0.0 0.00 0.00 0.00 83 1011.8
20260902125511 79 272 0.0 0.0 0.00 0.00 0.00 83 1011.8
20260902125405 79 271 0.0 0.0 0.00 0.00 0.00 83 1011.8
20260902125258 79 269 0.0 0.0 0.00 0.00 0.00 84 1011.7
20260902124937 79 271 0.0 0.0 0.00 0.00 0.00 83 1011.8
20260902124832 79 271 0.0 0.0 0.00 0.00 0.00 84 1011.8
20260902124725 79 272 0.0 0.0 0.00 0.00 0.00 84 1011.8
20260902124619 79 272 0.0 0.0 0.00 0.00 0.00 84 1011.8
20260902124518 79 272 0.0 0.0 0.00 0.00 0.00 84 1011.8
20260902124415 79 272 0.0 0.0 0.00 0.00 0.00 84 1011.8
20260902124310 79 272 0.0 0.0 0.00 0.00 0.00 84 1011.7
20260902124207 79 272 0.0 0.0 0.00 0.00 0.00 84 1011.7
20260902124100 79 272 0.0 0.0 0.00 0.00 0.00 84 1011.7
20260902123957 78 273 0.0 0.0 0.00 0.00 0.00 84 1011.7
20260902123849 78 273 0.0 0.0 0.00 0.00 0.00 84 1011.7
20260902123741 78 268 0.0 0.0 0.00 0.00 0.00 84 1011.7
20260902123635 78 283 0.0 0.0 0.00 0.00 0.00 84 1011.7
20260902123533 78 284 0.0 0.0 0.00 0.00 0.00 84 1011.8
20260902123428 78 284 0.0 0.0 0.00 0.00 0.00 84 1011.8
20260902123106 78 284 0.0 0.0 0.00 0.00 0.00 85 1011.8
20260902123000 78 281 0.0 0.0 0.00 0.00 0.00 85 1011.8
20260902122853 78 281 0.0 0.0 0.00 0.00 0.00 86 1011.8
20260902122747 78 281 0.0 0.0 0.00 0.00 0.00 86 1011.8
20260902122642 78 281 0.0 0.0 0.00 0.00 0.00 86 1011.7
20260902122539 78 281 0.0 0.0 0.00 0.00 0.00 86 1011.7
20260902122212 77 281 0.0 0.0 0.00 0.00 0.00 86 1011.7
20260902122110 77 281 0.0 0.0 0.00 0.00 0.00 86 1011.7
20260902122006 77 281 0.0 0.0 0.00 0.00 0.00 86 1011.7
20260902121902 77 281 0.0 0.0 0.00 0.00 0.00 86 1011.7
20260902121800 77 281 0.0 0.0 0.00 0.00 0.00 86 1011.7
20260902121655 77 281 0.0 0.0 0.00 0.00 0.00 87 1011.7
20260902121327 77 282 0.0 0.0 0.00 0.00 0.00 87 1011.7
20260902121000 76 281 0.0 0.0 0.00 0.00 0.00 88 1011.7
20260902120856 76 281 0.0 0.0 0.00 0.00 0.00 88 1011.7
20260902120751 76 281 0.0 0.0 0.00 0.00 0.00 88 1011.7
20260902120648 76 281 0.0 0.0 0.00 0.00 0.00 88 1011.7
20260902120546 76 281 0.0 0.0 0.00 0.00 0.00 88 1011.7
20260902120440 76 281 0.0 0.0 0.00 0.00 0.00 88 1011.7
20260902120332 76 281 0.0 0.0 0.00 0.00 0.00 88 1011.7
20260902115750 76 281 0.0 0.0 0.00 0.00 0.00 88 1011.7
20260902115645 75 281 0.0 0.0 0.00 0.00 0.00 88 1011.7
20260902115539 75 281 0.0 0.0 0.00 0.00 0.00 88 1011.7
20260902115434 75 281 0.0 0.0 0.00 0.00 0.00 88 1011.6
20260902115327 75 281 0.0 0.0 0.00 0.00 0.00 88 1011.6
20260902115219 75 281 0.0 0.0 0.00 0.00 0.00 88 1011.7
20260902114852 75 281 0.0 0.0 0.00 0.00 0.00 88 1011.7
20260902114527 75 281 0.0 0.0 0.00 0.00 0.00 88 1011.6
20260902114422 75 281 0.0 0.0 0.00 0.00 0.00 88 1011.6
20260902113608 75 281 0.0 0.0 0.00 0.00 0.00 87 1011.6
20260902113506 75 281 0.0 0.0 0.00 0.00 0.00 87 1011.6
20260902113403 76 281 0.0 0.0 0.00 0.00 0.00 88 1011.6
20260902113259 76 281 0.0 0.0 0.00 0.00 0.00 87 1011.6
20260902113152 76 281 0.0 0.0 0.00 0.00 0.00 87 1011.6
20260902113048 76 281 0.0 0.0 0.00 0.00 0.00 87 1011.7
20260902112720 76 281 0.0 0.0 0.00 0.00 0.00 87 1011.7
20260902112617 76 281 0.0 0.0 0.00 0.00 0.00 87 1011.7
20260902112510 76 281 0.0 0.0 0.00 0.00 0.00 87 1011.7
20260902112405 76 281 0.0 0.0 0.00 0.00 0.00 86 1011.7
20260902112259 76 281 0.0 0.0 0.00 0.00 0.00 86 1011.7
20260902111930 76 282 0.0 0.0 0.00 0.00 0.00 86 1011.7
20260902111822 76 282 0.0 0.0 0.00 0.00 0.00 86 1011.7
20260902111453 76 282 0.0 0.0 0.00 0.00 0.00 86 1011.7
20260902111349 76 282 0.0 0.0 0.00 0.00 0.00 86 1011.7
20260902111245 76 282 0.0 0.0 0.00 0.00 0.00 86 1011.7
20260902110653 77 282 0.0 0.0 0.00 0.00 0.00 85 1011.8
20260902110549 77 282 0.0 0.0 0.00 0.00 0.00 85 1011.8
20260902110446 77 282 0.0 0.0 0.00 0.00 0.00 85 1011.8
20260902110341 77 282 0.0 0.0 0.00 0.00 0.00 85 1011.8
20260902110234 77 282 0.0 0.0 0.00 0.00 0.00 85 1011.8
20260902105909 77 280 0.0 0.0 0.00 0.00 0.00 85 1011.8
20260902105807 77 279 0.0 0.0 0.00 0.00 0.00 85 1011.8
20260902105439 77 279 0.0 0.0 0.00 0.00 0.00 85 1011.9
20260902105336 77 279 0.0 0.0 0.00 0.00 0.00 85 1012.0
20260902105232 77 282 0.0 0.0 0.00 0.00 0.00 85 1011.9
20260902104907 77 283 0.0 0.0 0.00 0.00 0.00 85 1011.9
20260902104540 77 286 0.0 3.0 0.00 0.00 0.00 85 1011.9
20260902104434 77 286 0.0 3.0 0.00 0.00 0.00 85 1011.9
20260902104330 77 257 0.0 2.0 0.00 0.00 0.00 85 1011.9
20260902104225 77 226 0.0 0.0 0.00 0.00 0.00 85 1011.9
20260902104122 77 226 0.0 0.0 0.00 0.00 0.00 85 1011.9
20260902103752 77 226 0.0 0.0 0.00 0.00 0.00 85 1011.9
20260902103646 77 215 0.0 0.0 0.00 0.00 0.00 85 1012.0
20260902103543 77 215 0.0 0.0 0.00 0.00 0.00 85 1011.9
20260902103436 77 215 0.0 0.0 0.00 0.00 0.00 85 1011.9
20260902103329 78 215 0.0 0.0 0.00 0.00 0.00 85 1011.9
20260902103223 77 215 0.0 0.0 0.00 0.00 0.00 85 1011.9
20260902103120 78 211 0.0 0.0 0.00 0.00 0.00 85 1011.8
20260902103015 78 211 0.0 0.0 0.00 0.00 0.00 85 1011.8
20260902102654 78 250 0.0 0.0 0.00 0.00 0.00 85 1011.8
20260902102327 78 263 0.0 0.0 0.00 0.00 0.00 85 1011.8
20260902102221 78 263 0.0 1.0 0.00 0.00 0.00 85 1011.8
20260902102114 78 259 0.0 1.0 0.00 0.00 0.00 85 1011.7
20260902101748 78 170 0.0 0.0 0.00 0.00 0.00 86 1011.7
20260902101642 77 157 0.0 0.0 0.00 0.00 0.00 86 1011.7
20260902101540 77 277 0.0 0.0 0.00 0.00 0.00 86 1011.7
20260902101218 77 278 0.0 2.0 0.00 0.00 0.00 86 1011.7
20260902101111 77 245 0.0 2.0 0.00 0.00 0.00 86 1011.6
20260902101007 77 254 0.0 4.0 0.00 0.00 0.00 86 1011.6
20260902100859 77 254 0.0 4.0 0.00 0.00 0.00 86 1011.6
20260902100757 77 254 0.0 3.0 0.00 0.00 0.00 86 1011.6
20260902100654 77 247 0.0 3.0 0.00 0.00 0.00 86 1011.6
20260902100553 77 247 0.0 3.0 0.00 0.00 0.00 86 1011.7
20260902100446 77 261 0.0 0.0 0.00 0.00 0.00 86 1011.6
20260902100342 77 253 0.0 0.0 0.00 0.00 0.00 86 1011.6
20260902100236 77 253 0.0 0.0 0.00 0.00 0.00 86 1011.6
20260902100132 77 254 0.0 0.0 0.00 0.00 0.00 86 1011.6
20260902095551 77 252 0.0 0.0 0.00 0.00 0.00 86 1011.6
20260902095447 77 252 0.0 0.0 0.00 0.00 0.00 86 1011.6
20260902095341 77 252 0.0 0.0 0.00 0.00 0.00 87 1011.6
20260902095016 77 248 0.0 0.0 0.00 0.00 0.00 86 1011.6
20260902094913 77 253 0.0 0.0 0.00 0.00 0.00 86 1011.5
20260902094548 78 253 0.0 0.0 0.00 0.00 0.00 86 1011.5
20260902094445 78 254 0.0 0.0 0.00 0.00 0.00 86 1011.4
20260902094340 78 254 0.0 0.0 0.00 0.00 0.00 86 1011.5
20260902094233 78 254 0.0 0.0 0.00 0.00 0.00 86 1011.5
20260902094131 78 254 0.0 0.0 0.00 0.00 0.00 86 1011.5
20260902093803 78 254 0.0 0.0 0.00 0.00 0.00 86 1011.4
20260902093656 78 254 0.0 0.0 0.00 0.00 0.00 86 1011.5
20260902093333 78 254 0.0 0.0 0.00 0.00 0.00 85 1011.4
20260902093226 78 254 0.0 0.0 0.00 0.00 0.00 85 1011.5
20260902093120 78 254 0.0 0.0 0.00 0.00 0.00 85 1011.4
20260902093017 78 254 0.0 0.0 0.00 0.00 0.00 85 1011.4
20260902092914 78 254 0.0 0.0 0.00 0.00 0.00 85 1011.5
20260902092806 78 254 0.0 0.0 0.00 0.00 0.00 85 1011.5
20260902092437 78 256 0.0 0.0 0.00 0.00 0.00 85 1011.4
20260902092331 78 256 0.0 0.0 0.00 0.00 0.00 85 1011.5
20260902092230 78 255 0.0 0.0 0.00 0.00 0.00 85 1011.4
20260902092124 78 255 0.0 0.0 0.00 0.00 0.00 85 1011.5
20260902092020 78 255 0.0 0.0 0.00 0.00 0.00 85 1011.5
20260902091918 78 254 0.0 0.0 0.00 0.00 0.00 85 1011.5
20260902091815 78 254 0.0 0.0 0.00 0.00 0.00 85 1011.5
20260902091454 78 254 0.0 0.0 0.00 0.00 0.00 86 1011.5
20260902091346 78 254 0.0 0.0 0.00 0.00 0.00 86 1011.5
20260902091245 78 280 0.0 0.0 0.00 0.00 0.00 85 1011.4
20260902090922 78 259 0.0 0.0 0.00 0.00 0.00 85 1011.4
20260902090818 78 259 0.0 0.0 0.00 0.00 0.00 85 1011.3
20260902090714 78 259 0.0 0.0 0.00 0.00 0.00 85 1011.4
20260902090608 78 259 0.0 0.0 0.00 0.00 0.00 86 1011.3
20260902085757 78 248 0.0 0.0 0.00 0.00 0.00 86 1011.3
20260902085651 78 248 0.0 0.0 0.00 0.00 0.00 86 1011.2
20260902085547 78 248 0.0 0.0 0.00 0.00 0.00 86 1011.2
20260902085442 78 248 0.0 0.0 0.00 0.00 0.00 86 1011.2
20260902085336 78 248 0.0 0.0 0.00 0.00 0.00 86 1011.2
20260902085010 78 262 0.0 2.0 0.00 0.00 0.00 86 1011.2
20260902084905 78 262 0.0 2.0 0.00 0.00 0.00 86 1011.2
20260902084801 79 263 0.0 0.0 0.00 0.00 0.00 86 1011.2
20260902084655 79 265 0.0 0.0 0.00 0.00 0.00 86 1011.2
20260902084326 79 259 0.0 0.0 0.00 0.00 0.00 85 1011.2
20260902084220 79 259 0.0 0.0 0.00 0.00 0.00 85 1011.2
20260902084117 79 262 0.0 0.0 0.00 0.00 0.00 85 1011.1
20260902083752 79 270 0.0 0.0 0.00 0.00 0.00 85 1011.2
20260902083427 79 269 0.0 0.0 0.00 0.00 0.00 85 1011.2
20260902083323 79 266 0.0 0.0 0.00 0.00 0.00 85 1011.3
20260902083000 79 252 0.0 0.0 0.00 0.00 0.00 85 1011.3
20260902082853 79 252 0.0 0.0 0.00 0.00 0.00 85 1011.2
20260902082750 79 252 0.0 0.0 0.00 0.00 0.00 85 1011.3
20260902082644 79 282 0.0 0.0 0.00 0.00 0.00 85 1011.3
20260902082539 79 287 0.0 0.0 0.00 0.00 0.00 85 1011.3
20260902082433 79 272 0.0 0.0 0.00 0.00 0.00 85 1011.2
20260902082331 79 272 0.0 0.0 0.00 0.00 0.00 85 1011.2
20260902082225 79 273 0.0 0.0 0.00 0.00 0.00 85 1011.2
20260902081639 79 284 0.0 4.0 0.00 0.00 0.00 85 1011.1
20260902081532 79 284 0.0 4.0 0.00 0.00 0.00 85 1011.2
20260902081210 79 248 0.0 0.0 0.00 0.00 0.00 85 1011.2
20260902080845 79 256 0.0 5.0 0.00 0.00 0.00 85 1011.1
20260902080738 79 252 0.0 5.0 0.00 0.00 0.00 85 1011.1
20260902080635 79 279 0.0 5.0 0.00 0.00 0.00 85 1011.1
20260902080530 79 277 0.0 4.0 0.00 0.00 0.00 85 1011.1
20260902080425 79 270 0.0 0.0 0.00 0.00 0.00 85 1011.0
20260902080321 79 284 0.0 0.0 0.00 0.00 0.00 85 1011.1
20260902080216 79 286 0.0 0.0 0.00 0.00 0.00 85 1011.1
20260902080113 79 258 0.0 0.0 0.00 0.00 0.00 85 1011.1
20260902075749 79 263 0.0 0.0 0.00 0.00 0.00 86 1011.2
20260902075645 79 269 0.0 0.0 0.00 0.00 0.00 86 1011.2
20260902075539 79 269 0.0 0.0 0.00 0.00 0.00 86 1011.2
20260902075212 79 283 1.0 8.0 0.00 0.00 0.00 86 1011.2
20260902075105 79 278 1.0 8.0 0.00 0.00 0.00 87 1011.2
20260902074959 79 262 1.0 8.0 0.00 0.00 0.00 87 1011.2
20260902074855 79 264 1.0 6.0 0.00 0.00 0.00 87 1011.2
20260902074751 79 289 1.0 6.0 0.00 0.00 0.00 88 1011.2
20260902074647 79 260 0.0 6.0 0.00 0.00 0.00 88 1011.2
20260902074539 78 244 0.0 6.0 0.00 0.00 0.00 88 1011.1
20260902074434 78 281 0.0 6.0 0.00 0.00 0.00 89 1011.1
20260902074328 78 290 0.0 6.0 0.00 0.00 0.00 89 1011.2
20260902074001 78 266 0.0 4.0 0.00 0.00 0.00 90 1011.1
20260902073858 78 288 0.0 0.0 0.00 0.00 0.00 91 1011.1
20260902073753 78 314 0.0 0.0 0.00 0.00 0.00 91 1011.1
20260902073650 78 259 0.0 0.0 0.00 0.00 0.00 91 1011.1
20260902073323 77 254 0.0 5.0 0.00 0.00 0.00 92 1011.1
20260902073218 77 244 0.0 0.0 0.00 0.00 0.00 92 1011.1
20260902073113 77 268 0.0 0.0 0.00 0.00 0.00 92 1011.1
20260902073009 77 268 0.0 0.0 0.00 0.00 0.00 93 1011.1
20260902072904 77 279 0.0 0.0 0.00 0.00 0.00 93 1011.1
20260902072758 77 269 0.0 0.0 0.00 0.00 0.00 93 1011.1
20260902072653 77 269 0.0 0.0 0.00 0.00 0.00 93 1011.1
20260902072547 77 261 0.0 0.0 0.00 0.00 0.00 93 1011.1
20260902072445 77 261 0.0 0.0 0.00 0.00 0.00 94 1011.1
20260902072339 77 252 0.0 0.0 0.00 0.00 0.00 94 1011.1
20260902072233 77 216 0.0 0.0 0.00 0.00 0.00 94 1011.1
20260902072130 76 216 0.0 0.0 0.00 0.00 0.00 94 1011.1
20260902072025 76 177 0.0 0.0 0.00 0.00 0.00 94 1011.1
20260902071923 76 249 0.0 0.0 0.00 0.00 0.00 94 1011.1
20260902071819 76 250 0.0 0.0 0.00 0.00 0.00 94 1011.1
20260902071011 75 267 0.0 0.0 0.00 0.00 0.00 95 1011.1
20260902070908 75 266 0.0 0.0 0.00 0.00 0.00 95 1011.0
20260902070804 75 267 0.0 0.0 0.00 0.00 0.00 95 1011.0
20260902070439 75 250 0.0 0.0 0.00 0.00 0.00 95 1011.0
20260902070117 75 250 0.0 0.0 0.00 0.00 0.00 94 1011.1
20260902070013 75 263 0.0 0.0 0.00 0.00 0.00 95 1011.1
20260902065906 74 269 0.0 0.0 0.00 0.00 0.00 94 1011.1
20260902065759 74 250 0.0 0.0 0.00 0.00 0.00 94 1011.1
20260902065652 74 250 0.0 0.0 0.00 0.00 0.00 94 1011.1
20260902065330 74 250 0.0 0.0 0.00 0.00 0.00 94 1011.0
20260902065008 73 250 0.0 0.0 0.00 0.00 0.00 94 1011.0
20260902064639 73 251 0.0 0.0 0.00 0.00 0.00 94 1011.0
20260902064057 73 251 0.0 0.0 0.00 0.00 0.00 94 1011.1
20260902063954 73 251 0.0 0.0 0.00 0.00 0.00 94 1011.1
20260902063850 72 251 0.0 0.0 0.00 0.00 0.00 94 1011.1
20260902063744 72 251 0.0 0.0 0.00 0.00 0.00 93 1011.1
20260902063419 72 251 0.0 0.0 0.00 0.00 0.00 93 1011.1
20260902063312 72 251 0.0 0.0 0.00 0.00 0.00 93 1011.1
20260902063205 72 251 0.0 0.0 0.00 0.00 0.00 93 1011.1
20260902063102 72 251 0.0 0.0 0.00 0.00 0.00 93 1011.1
20260902062958 72 251 0.0 0.0 0.00 0.00 0.00 93 1011.1
20260902062636 72 251 0.0 0.0 0.00 0.00 0.00 93 1011.1
20260902062311 72 251 0.0 0.0 0.00 0.00 0.00 93 1011.1
20260902062206 72 251 0.0 0.0 0.00 0.00 0.00 93 1011.1
20260902061842 73 251 0.0 0.0 0.00 0.00 0.00 93 1011.2
20260902061735 73 251 0.0 0.0 0.00 0.00 0.00 93 1011.1
20260902061410 73 251 0.0 0.0 0.00 0.00 0.00 93 1011.2
20260902061302 72 251 0.0 0.0 0.00 0.00 0.00 93 1011.1
20260902061155 72 251 0.0 0.0 0.00 0.00 0.00 93 1011.2
20260902061050 72 251 0.0 0.0 0.00 0.00 0.00 93 1011.2
20260902060726 73 251 0.0 0.0 0.00 0.00 0.00 93 1011.2
20260902060619 73 251 0.0 0.0 0.00 0.00 0.00 93 1011.3
20260902060515 73 251 0.0 0.0 0.00 0.00 0.00 93 1011.3
20260902060409 73 251 0.0 0.0 0.00 0.00 0.00 93 1011.3
20260902060305 73 251 0.0 0.0 0.00 0.00 0.00 93 1011.3
20260902060200 73 251 0.0 0.0 0.00 0.00 0.00 93 1011.3
20260902060053 73 251 0.0 0.0 0.00 0.00 0.00 93 1011.4
20260902055949 73 251 0.0 0.0 0.00 0.00 0.00 93 1011.3
20260902055843 73 251 0.0 0.0 0.00 0.00 0.00 93 1011.4
20260902055737 73 251 0.0 0.0 0.00 0.00 0.00 93 1011.3
20260902055631 73 251 0.0 0.0 0.00 0.00 0.00 93 1011.3
20260902055308 73 251 0.0 0.0 0.00 0.00 0.00 93 1011.4
20260902054723 73 251 0.0 0.0 0.00 0.00 0.00 93 1011.4
20260902054616 72 251 0.0 0.0 0.00 0.00 0.00 93 1011.4
20260902054512 72 251 0.0 0.0 0.00 0.00 0.00 93 1011.5
20260902054148 72 251 0.0 0.0 0.00 0.00 0.00 93 1011.5
20260902054041 72 251 0.0 0.0 0.00 0.00 0.00 93 1011.5
20260902053938 72 251 0.0 0.0 0.00 0.00 0.00 93 1011.6
20260902053833 72 251 0.0 0.0 0.00 0.00 0.00 93 1011.6
20260902053728 72 251 0.0 0.0 0.00 0.00 0.00 93 1011.6
20260902053626 72 251 0.0 0.0 0.00 0.00 0.00 93 1011.6
20260902053519 72 251 0.0 0.0 0.00 0.00 0.00 93 1011.6
20260902053417 72 251 0.0 0.0 0.00 0.00 0.00 93 1011.6
20260902053311 72 251 0.0 0.0 0.00 0.00 0.00 93 1011.6
20260902053208 72 251 0.0 0.0 0.00 0.00 0.00 93 1011.6
20260902053105 72 251 0.0 0.0 0.00 0.00 0.00 93 1011.6
20260902052742 72 251 0.0 0.0 0.00 0.00 0.00 93 1011.7
20260902052637 72 251 0.0 0.0 0.00 0.00 0.00 93 1011.7
20260902052310 72 251 0.0 0.0 0.00 0.00 0.00 93 1011.7
20260902052208 72 251 0.0 0.0 0.00 0.00 0.00 93 1011.7
20260902052104 72 251 0.0 0.0 0.00 0.00 0.00 93 1011.7
20260902051957 72 251 0.0 0.0 0.00 0.00 0.00 92 1011.8
20260902051635 72 251 0.0 0.0 0.00 0.00 0.00 92 1011.7
20260902051533 72 251 0.0 0.0 0.00 0.00 0.00 92 1011.7
20260902051431 72 251 0.0 0.0 0.00 0.00 0.00 92 1011.7
20260902051329 72 251 0.0 0.0 0.00 0.00 0.00 92 1011.7
20260902051225 72 251 0.0 0.0 0.00 0.00 0.00 92 1011.6
20260902051122 72 251 0.0 0.0 0.00 0.00 0.00 92 1011.6
20260902050757 72 251 0.0 0.0 0.00 0.00 0.00 92 1011.7
20260902050655 72 251 0.0 0.0 0.00 0.00 0.00 92 1011.6
20260902050550 72 251 0.0 0.0 0.00 0.00 0.00 92 1011.6
20260902050447 72 251 0.0 0.0 0.00 0.00 0.00 92 1011.6
20260902050122 72 251 0.0 0.0 0.00 0.00 0.00 92 1011.6
20260902050017 72 251 0.0 0.0 0.00 0.00 0.00 92 1011.5
20260902045648 72 251 0.0 0.0 0.00 0.00 0.00 92 1011.5
20260902045540 73 251 0.0 0.0 0.00 0.00 0.00 92 1011.5
20260902045433 73 251 0.0 0.0 0.00 0.00 0.00 92 1011.5
20260902045328 72 251 0.0 0.0 0.00 0.00 0.00 92 1011.4
20260902045226 73 251 0.0 0.0 0.00 0.00 0.00 92 1011.5
20260902045118 72 251 0.0 0.0 0.00 0.00 0.00 92 1011.4
20260902045011 73 251 0.0 0.0 0.00 0.00 0.00 92 1011.5
20260902044649 73 251 0.0 0.0 0.00 0.00 0.00 92 1011.5
20260902044547 73 251 0.0 0.0 0.00 0.00 0.00 92 1011.5
20260902044442 73 251 0.0 0.0 0.00 0.00 0.00 92 1011.5
20260902044114 73 251 0.0 0.0 0.00 0.00 0.00 92 1011.5
20260902044008 73 251 0.0 0.0 0.00 0.00 0.00 92 1011.5
20260902043645 73 251 0.0 0.0 0.00 0.00 0.00 92 1011.5
20260902043541 73 251 0.0 0.0 0.00 0.00 0.00 92 1011.5
20260902043436 73 251 0.0 0.0 0.00 0.00 0.00 92 1011.5
20260902043332 73 251 0.0 0.0 0.00 0.00 0.00 92 1011.5
20260902043228 73 251 0.0 0.0 0.00 0.00 0.00 92 1011.5
20260902043124 73 251 0.0 0.0 0.00 0.00 0.00 92 1011.5
20260902043017 73 251 0.0 0.0 0.00 0.00 0.00 92 1011.5
20260902042435 72 251 0.0 0.0 0.00 0.00 0.00 92 1011.6
20260902042331 73 251 0.0 0.0 0.00 0.00 0.00 92 1011.6
20260902042227 73 251 0.0 0.0 0.00 0.00 0.00 92 1011.6
20260902041900 72 251 0.0 0.0 0.00 0.00 0.00 92 1011.5
20260902041755 72 251 0.0 0.0 0.00 0.00 0.00 92 1011.6
20260902041648 72 251 0.0 0.0 0.00 0.00 0.00 92 1011.5
20260902041104 73 251 0.0 0.0 0.00 0.00 0.00 92 1011.5
20260902040515 73 251 0.0 0.0 0.00 0.00 0.00 92 1011.5
20260902040411 73 251 0.0 0.0 0.00 0.00 0.00 92 1011.5
20260902040304 73 251 0.0 0.0 0.00 0.00 0.00 92 1011.5
20260902040157 73 251 0.0 0.0 0.00 0.00 0.00 92 1011.6
20260902040053 73 251 0.0 0.0 0.00 0.00 0.00 92 1011.5
20260902035950 73 251 0.0 0.0 0.00 0.00 0.00 92 1011.5
20260902035845 73 251 0.0 0.0 0.00 0.00 0.00 92 1011.6
20260902035521 73 251 0.0 0.0 0.00 0.00 0.00 92 1011.5
20260902035157 73 251 0.0 0.0 0.00 0.00 0.00 92 1011.6
20260902035053 73 251 0.0 0.0 0.00 0.00 0.00 92 1011.6
20260902034728 73 251 0.0 0.0 0.00 0.00 0.00 92 1011.6
20260902034402 73 251 0.0 0.0 0.00 0.00 0.00 91 1011.6
20260902034255 73 251 0.0 0.0 0.00 0.00 0.00 91 1011.6
20260902034148 73 251 0.0 0.0 0.00 0.00 0.00 92 1011.7
20260902034041 73 251 0.0 0.0 0.00 0.00 0.00 92 1011.7
20260902033938 73 251 0.0 0.0 0.00 0.00 0.00 92 1011.7
20260902033830 73 251 0.0 0.0 0.00 0.00 0.00 92 1011.6
20260902033725 73 251 0.0 0.0 0.00 0.00 0.00 92 1011.7
20260902033619 73 251 0.0 0.0 0.00 0.00 0.00 92 1011.7
20260902033512 73 251 0.0 0.0 0.00 0.00 0.00 91 1011.6
20260902033408 73 251 0.0 0.0 0.00 0.00 0.00 91 1011.6
20260902033306 73 251 0.0 0.0 0.00 0.00 0.00 91 1011.6
20260902033159 73 251 0.0 0.0 0.00 0.00 0.00 91 1011.6
20260902032832 73 251 0.0 0.0 0.00 0.00 0.00 91 1011.5
20260902032727 73 251 0.0 0.0 0.00 0.00 0.00 91 1011.5
20260902032621 73 251 0.0 0.0 0.00 0.00 0.00 91 1011.5
20260902032518 73 251 0.0 0.0 0.00 0.00 0.00 91 1011.5
20260902032414 73 251 0.0 0.0 0.00 0.00 0.00 91 1011.5
20260902032308 73 251 0.0 0.0 0.00 0.00 0.00 91 1011.5
20260902032203 73 251 0.0 0.0 0.00 0.00 0.00 91 1011.5
20260902032058 73 251 0.0 0.0 0.00 0.00 0.00 91 1011.5
20260902031955 73 251 0.0 0.0 0.00 0.00 0.00 91 1011.4
20260902031850 73 251 0.0 0.0 0.00 0.00 0.00 91 1011.4
20260902031742 73 251 0.0 0.0 0.00 0.00 0.00 91 1011.4
20260902031640 73 251 0.0 0.0 0.00 0.00 0.00 91 1011.4
20260902031536 73 251 0.0 0.0 0.00 0.00 0.00 91 1011.4
20260902031210 73 251 0.0 0.0 0.00 0.00 0.00 91 1011.5
20260902031109 73 251 0.0 0.0 0.00 0.00 0.00 91 1011.4
20260902031006 73 251 0.0 0.0 0.00 0.00 0.00 91 1011.5
20260902030902 73 251 0.0 0.0 0.00 0.00 0.00 91 1011.5
20260902030758 73 251 0.0 0.0 0.00 0.00 0.00 91 1011.4
20260902030433 73 251 0.0 0.0 0.00 0.00 0.00 91 1011.4
20260902030327 73 251 0.0 0.0 0.00 0.00 0.00 91 1011.4
20260902030219 73 251 0.0 0.0 0.00 0.00 0.00 91 1011.4
20260902030113 73 251 0.0 0.0 0.00 0.00 0.00 91 1011.3
20260902030008 73 251 0.0 0.0 0.00 0.00 0.00 91 1011.3
20260902025903 73 251 0.0 0.0 0.00 0.00 0.00 91 1011.3
20260902025757 73 251 0.0 0.0 0.00 0.00 0.00 91 1011.3
20260902025653 73 251 0.0 0.0 0.00 0.00 0.00 91 1011.3
20260902025548 73 251 0.0 0.0 0.00 0.00 0.00 91 1011.3
20260902025445 73 251 0.0 0.0 0.00 0.00 0.00 91 1011.3
20260902025339 73 251 0.0 0.0 0.00 0.00 0.00 91 1011.3
20260902025013 73 251 0.0 0.0 0.00 0.00 0.00 90 1011.3
20260902024907 73 251 0.0 0.0 0.00 0.00 0.00 90 1011.3
20260902024544 73 251 0.0 0.0 0.00 0.00 0.00 90 1011.4
20260902024438 73 251 0.0 0.0 0.00 0.00 0.00 90 1011.4
20260902024332 73 251 0.0 0.0 0.00 0.00 0.00 90 1011.3
20260902024224 73 251 0.0 0.0 0.00 0.00 0.00 90 1011.4
20260902023642 73 251 0.0 0.0 0.00 0.00 0.00 90 1011.3
20260902023538 73 251 0.0 0.0 0.00 0.00 0.00 90 1011.3
20260902023431 74 251 0.0 0.0 0.00 0.00 0.00 90 1011.3
20260902023324 74 251 0.0 0.0 0.00 0.00 0.00 90 1011.3
20260902023219 74 251 0.0 0.0 0.00 0.00 0.00 90 1011.2
20260902023114 74 251 0.0 0.0 0.00 0.00 0.00 90 1011.2
20260902022752 74 251 0.0 0.0 0.00 0.00 0.00 90 1011.2
20260902022648 74 251 0.0 0.0 0.00 0.00 0.00 90 1011.1
20260902022542 74 251 0.0 0.0 0.00 0.00 0.00 90 1011.1
20260902022436 74 251 0.0 0.0 0.00 0.00 0.00 90 1011.1
20260902022332 74 251 0.0 0.0 0.00 0.00 0.00 90 1011.1
20260902022226 74 251 0.0 0.0 0.00 0.00 0.00 90 1011.0
20260902021855 74 251 0.0 0.0 0.00 0.00 0.00 90 1011.0
20260902021754 74 251 0.0 0.0 0.00 0.00 0.00 90 1011.0
20260902021647 74 251 0.0 0.0 0.00 0.00 0.00 90 1011.1
20260902021542 74 251 0.0 0.0 0.00 0.00 0.00 90 1011.0
20260902021436 74 251 0.0 0.0 0.00 0.00 0.00 89 1011.0
20260902021114 74 251 0.0 0.0 0.00 0.00 0.00 89 1011.0
20260902021008 74 251 0.0 0.0 0.00 0.00 0.00 89 1011.0
20260902020646 74 251 0.0 0.0 0.00 0.00 0.00 89 1011.0
20260902020541 74 251 0.0 0.0 0.00 0.00 0.00 89 1011.0
20260902020436 74 251 0.0 0.0 0.00 0.00 0.00 89 1011.0
20260902020107 74 251 0.0 0.0 0.00 0.00 0.00 89 1011.0
20260902020001 74 251 0.0 0.0 0.00 0.00 0.00 89 1011.0
20260902015858 74 251 0.0 0.0 0.00 0.00 0.00 89 1011.1
20260902015316 74 251 0.0 0.0 0.00 0.00 0.00 89 1011.2
20260902015212 74 251 0.0 0.0 0.00 0.00 0.00 89 1011.2
20260902015106 74 251 0.0 0.0 0.00 0.00 0.00 89 1011.4
20260902015002 74 251 0.0 0.0 0.00 0.00 0.00 89 1011.4
20260902014855 74 251 0.0 0.0 0.00 0.00 0.00 88 1011.5
20260902014750 74 251 0.0 0.0 0.00 0.00 0.00 88 1011.5
20260902014645 74 251 0.0 0.0 0.00 0.00 0.00 88 1011.6
20260902014322 74 251 0.0 0.0 0.00 0.00 0.00 88 1011.5
20260902014001 74 251 0.0 0.0 0.00 0.00 0.00 88 1011.3
20260902013857 74 251 0.0 0.0 0.00 0.00 0.00 88 1011.2
20260902013750 74 251 0.0 0.0 0.00 0.00 0.00 88 1011.2
20260902013424 74 251 0.0 0.0 0.00 0.00 0.00 87 1011.1
20260902013318 74 251 0.0 0.0 0.00 0.00 0.00 87 1011.1
20260902013216 75 251 0.0 0.0 0.00 0.00 0.00 87 1011.2
20260902012853 75 251 0.0 0.0 0.00 0.00 0.00 87 1011.3
20260902012747 75 251 0.0 0.0 0.00 0.00 0.00 87 1011.4
20260902012642 75 251 0.0 0.0 0.00 0.00 0.00 87 1011.4
20260902012537 75 251 0.0 0.0 0.00 0.00 0.00 86 1011.4
20260902012431 75 251 0.0 0.0 0.00 0.00 0.00 87 1011.4
20260902012328 75 251 0.0 0.0 0.00 0.00 0.00 87 1011.4
20260902012224 75 251 0.0 0.0 0.00 0.00 0.00 86 1011.4
20260902012118 75 251 0.0 0.0 0.00 0.00 0.00 86 1011.4
20260902012015 75 251 0.0 0.0 0.00 0.00 0.00 86 1011.4
20260902011910 75 252 0.0 0.0 0.00 0.00 0.00 86 1011.4
20260902011322 75 252 0.0 0.0 0.00 0.00 0.00 86 1011.6
20260902011219 75 252 0.0 0.0 0.00 0.00 0.00 86 1011.6
20260902011116 75 252 0.0 0.0 0.00 0.00 0.00 86 1011.6
20260902011008 75 252 0.0 0.0 0.00 0.00 0.00 86 1011.6
20260902010905 75 252 0.0 0.0 0.00 0.00 0.00 86 1011.6
20260902010800 75 252 0.0 0.0 0.00 0.00 0.00 86 1011.5
20260902010655 76 252 0.0 0.0 0.00 0.00 0.00 86 1011.5
20260902010550 76 252 0.0 0.0 0.00 0.00 0.00 86 1011.5
20260902010445 76 252 0.0 0.0 0.00 0.00 0.00 85 1011.5
20260902010119 76 252 0.0 0.0 0.00 0.00 0.00 85 1011.5
20260902010017 76 252 0.0 0.0 0.00 0.00 0.00 85 1011.5
20260902005913 76 252 0.0 0.0 0.00 0.00 0.00 85 1011.5
20260902005547 76 252 0.0 0.0 0.00 0.00 0.00 84 1011.6
20260902005443 76 252 0.0 0.0 0.00 0.00 0.00 84 1011.6
20260902005338 76 252 0.0 0.0 0.00 0.00 0.00 84 1011.6
20260902005236 76 252 0.0 0.0 0.00 0.00 0.00 84 1011.6
20260902005132 76 252 0.0 0.0 0.00 0.00 0.00 84 1011.6
20260902005025 76 252 0.0 0.0 0.00 0.00 0.00 84 1011.6
20260902004919 76 252 0.0 0.0 0.00 0.00 0.00 84 1011.7
20260902004812 76 252 0.0 0.0 0.00 0.00 0.00 83 1011.7
20260902004707 76 252 0.0 0.0 0.00 0.00 0.00 83 1011.7
20260902004601 76 252 0.0 0.0 0.00 0.00 0.00 83 1011.7
20260902004456 76 252 0.0 0.0 0.00 0.00 0.00 83 1011.6
20260902004131 77 252 0.0 0.0 0.00 0.00 0.00 82 1011.6
20260902004028 77 252 0.0 0.0 0.00 0.00 0.00 82 1011.6
20260902003922 77 252 0.0 0.0 0.00 0.00 0.00 82 1011.6
20260902003817 77 252 0.0 0.0 0.00 0.00 0.00 82 1011.5
20260902003714 77 252 0.0 0.0 0.00 0.00 0.00 82 1011.5
20260902003347 77 252 0.0 0.0 0.00 0.00 0.00 82 1011.3
20260902003241 77 252 0.0 0.0 0.00 0.00 0.00 81 1011.3
20260902003137 78 252 0.0 0.0 0.00 0.00 0.00 81 1011.3
20260902002555 78 252 0.0 0.0 0.00 0.00 0.00 79 1011.2
20260902002449 78 252 0.0 0.0 0.00 0.00 0.00 79 1011.2
20260902002344 78 252 0.0 0.0 0.00 0.00 0.00 79 1011.2
20260902002238 78 252 0.0 0.0 0.00 0.00 0.00 79 1011.2
20260902002135 78 252 0.0 0.0 0.00 0.00 0.00 79 1011.3
20260902002031 78 252 0.0 0.0 0.00 0.00 0.00 79 1011.3
20260902001929 78 252 0.0 0.0 0.00 0.00 0.00 79 1011.3
20260902001823 78 252 0.0 0.0 0.00 0.00 0.00 79 1011.3
20260902001717 78 252 0.0 0.0 0.00 0.00 0.00 78 1011.3
20260902001352 79 252 0.0 0.0 0.00 0.00 0.00 78 1011.3
20260902001249 79 252 0.0 0.0 0.00 0.00 0.00 78 1011.3
20260902001146 79 252 0.0 0.0 0.00 0.00 0.00 78 1011.3
20260902000822 79 252 0.0 0.0 0.00 0.00 0.00 77 1011.3
20260902000459 79 252 0.0 0.0 0.00 0.00 0.00 77 1011.3
20260902000356 79 252 0.0 0.0 0.00 0.00 0.00 77 1011.3
20260902000251 79 252 0.0 0.0 0.00 0.00 0.00 77 1011.3
20260902000147 79 252 0.0 0.0 0.00 0.00 0.00 77 1011.3
20260902000042 79 252 0.0 0.0 0.00 0.00 0.00 77 1011.3
20260901235936 79 252 0.0 0.0 0.00 0.00 0.00 77 1011.3
20260901235830 79 252 0.0 0.0 0.00 0.00 0.00 76 1011.4
20260901235727 79 252 0.0 0.0 0.00 0.00 0.00 76 1011.3
20260901235625 79 252 0.0 0.0 0.00 0.00 0.00 76 1011.3
20260901235523 79 252 0.0 0.0 0.00 0.00 0.00 76 1011.3
20260901235421 79 252 0.0 0.0 0.00 0.00 0.00 76 1011.3
20260901235318 79 255 0.0 0.0 0.00 0.00 0.00 76 1011.3
20260901235211 79 255 0.0 0.0 0.00 0.00 0.00 76 1011.4
20260901235107 80 255 0.0 0.0 0.00 0.00 0.00 76 1011.4
20260901235001 80 255 0.0 0.0 0.00 0.00 0.00 76 1011.4
20260901234854 80 255 0.0 0.0 0.00 0.00 0.00 76 1011.4
20260901234750 80 254 0.0 0.0 0.00 0.00 0.00 75 1011.5
20260901234646 80 289 0.0 0.0 0.00 0.00 0.00 76 1011.5
20260901234542 80 289 1.0 0.0 0.00 0.00 0.00 75 1011.5
20260901234438 80 289 1.0 6.0 0.00 0.00 0.00 75 1011.5
20260901234335 80 289 1.0 6.0 0.00 0.00 0.00 75 1011.5
20260901234230 80 263 1.0 6.0 0.00 0.00 0.00 75 1011.5
20260901234127 80 256 1.0 6.0 0.00 0.00 0.00 75 1011.6
20260901233800 80 258 0.0 6.0 0.00 0.00 0.00 74 1011.6
20260901233656 80 271 0.0 6.0 0.00 0.00 0.00 74 1011.7
20260901233331 80 265 1.0 0.0 0.00 0.00 0.00 74 1011.7
20260901233223 81 268 1.0 0.0 0.00 0.00 0.00 74 1011.7
20260901233119 81 290 1.0 0.0 0.00 0.00 0.00 74 1011.7
20260901233012 81 265 1.0 7.0 0.00 0.00 0.00 74 1011.7
20260901232648 81 277 1.0 7.0 0.00 0.00 0.00 73 1011.7
20260901232543 81 275 1.0 8.0 0.00 0.00 0.00 73 1011.6
20260901232440 81 275 1.0 8.0 0.00 0.00 0.00 73 1011.7
20260901232115 81 261 2.0 8.0 0.00 0.00 0.00 73 1011.7
20260901232012 81 264 2.0 8.0 0.00 0.00 0.00 74 1011.8
20260901231904 81 294 2.0 8.0 0.00 0.00 0.00 73 1011.8
20260901231800 81 290 2.0 8.0 0.00 0.00 0.00 74 1011.8
20260901231657 81 294 2.0 8.0 0.00 0.00 0.00 74 1011.8
20260901231553 81 275 3.0 8.0 0.00 0.00 0.00 73 1011.8
20260901231447 81 254 2.0 8.0 0.00 0.00 0.00 74 1011.8
20260901230648 81 252 2.0 8.0 0.00 0.00 0.00 74 1011.8
20260901230541 81 262 1.0 7.0 0.00 0.00 0.00 74 1011.8
20260901225955 81 287 2.0 9.0 0.00 0.00 0.00 74 1011.7
20260901225852 81 267 2.0 9.0 0.00 0.00 0.00 74 1011.7
20260901225749 81 274 2.0 9.0 0.00 0.00 0.00 74 1011.8
20260901225643 81 279 2.0 9.0 0.00 0.00 0.00 74 1011.8
20260901225321 81 259 3.0 9.0 0.00 0.00 0.00 74 1011.7
20260901225217 81 290 3.0 9.0 0.00 0.00 0.00 74 1011.6
20260901225109 81 273 3.0 9.0 0.00 0.00 0.00 74 1011.6
20260901224743 81 252 3.0 9.0 0.00 0.00 0.00 74 1011.6
20260901224638 81 262 4.0 9.0 0.00 0.00 0.00 74 1011.6
20260901224536 81 298 4.0 9.0 0.00 0.00 0.00 74 1011.6
20260901224210 81 268 2.0 8.0 0.00 0.00 0.00 74 1011.6
20260901224107 81 263 2.0 8.0 0.00 0.00 0.00 74 1011.5
20260901223739 81 279 1.0 8.0 0.00 0.00 0.00 73 1011.6
20260901223635 82 263 1.0 8.0 0.00 0.00 0.00 74 1011.6
20260901223533 82 269 1.0 6.0 0.00 0.00 0.00 74 1011.5
20260901223426 82 255 1.0 6.0 0.00 0.00 0.00 74 1011.6
20260901223324 82 294 1.0 0.0 0.00 0.00 0.00 74 1011.5
20260901223218 82 267 1.0 0.0 0.00 0.00 0.00 74 1011.5
20260901222850 82 211 1.0 7.0 0.00 0.00 0.00 73 1011.5
20260901222528 82 257 1.0 6.0 0.00 0.00 0.00 74 1011.4
20260901222424 82 277 1.0 6.0 0.00 0.00 0.00 74 1011.5
20260901222317 82 246 1.0 0.0 0.00 0.00 0.00 74 1011.5
20260901222213 82 253 1.0 0.0 0.00 0.00 0.00 74 1011.5
20260901222108 82 271 1.0 0.0 0.00 0.00 0.00 75 1011.5
20260901222001 82 284 1.0 0.0 0.00 0.00 0.00 75 1011.6
20260901221854 82 283 1.0 6.0 0.00 0.00 0.00 75 1011.6
20260901221752 82 257 1.0 6.0 0.00 0.00 0.00 74 1011.6
20260901221644 82 266 1.0 6.0 0.00 0.00 0.00 75 1011.6
20260901221057 82 259 0.0 4.0 0.00 0.01 0.00 76 1011.6
20260901220952 82 276 0.0 3.0 0.00 0.01 0.00 76 1011.6
20260901220848 82 267 0.0 3.0 0.00 0.01 0.00 76 1011.6
20260901220523 82 261 0.0 4.0 0.00 0.01 0.00 76 1011.5
20260901220416 82 261 0.0 4.0 0.00 0.01 0.00 76 1011.5
20260901220312 82 273 0.0 4.0 0.00 0.01 0.00 76 1011.5
20260901215724 82 287 0.0 2.0 0.00 0.01 0.00 75 1011.4
20260901215620 82 255 0.0 0.0 0.00 0.01 0.00 76 1011.3
20260901215517 83 236 0.0 0.0 0.00 0.02 0.00 75 1011.3
20260901215413 83 232 0.0 5.0 0.00 0.02 0.00 75 1011.3
20260901215306 83 268 0.0 5.0 0.00 0.02 0.00 75 1011.2
20260901215203 83 281 0.0 5.0 0.00 0.02 0.00 75 1011.3
20260901215056 83 252 0.0 5.0 0.00 0.02 0.00 75 1011.2
20260901214731 83 262 0.0 0.0 0.00 0.03 0.00 76 1011.2
20260901214625 83 262 0.0 0.0 0.00 0.03 0.00 75 1011.2
20260901214524 83 263 0.0 0.0 0.00 0.03 0.00 75 1011.1
20260901214421 83 248 0.0 0.0 0.00 0.03 0.00 75 1011.1
20260901214316 83 248 0.0 0.0 0.00 0.03 0.00 75 1011.1
20260901214213 83 252 0.0 0.0 0.00 0.03 0.00 75 1011.1
20260901213850 84 281 0.0 0.0 0.00 0.03 0.00 74 1010.9
20260901213746 84 281 0.0 6.0 0.00 0.03 0.00 74 1011.0
20260901213423 84 259 0.0 6.0 0.00 0.04 0.00 73 1010.9
20260901213320 84 164 0.0 6.0 0.00 0.04 0.00 73 1011.0
20260901213217 84 328 0.0 2.0 0.00 0.04 0.00 74 1010.9
20260901212856 84 0 0.0 4.0 0.00 0.05 0.00 73 1011.1
20260901212749 85 252 0.0 3.0 0.00 0.06 0.00 74 1011.0
20260901212430 84 232 0.0 4.0 0.00 0.06 0.00 74 1010.9
20260901212327 84 294 0.0 5.0 0.00 0.06 0.00 74 1010.9
20260901211744 84 217 0.0 0.0 0.00 0.07 0.00 75 1010.9
20260901211641 84 237 0.0 0.0 0.00 0.07 0.00 75 1010.7
20260901211538 84 211 0.0 0.0 0.00 0.07 0.00 75 1010.8
20260901211434 84 225 0.0 0.0 0.00 0.07 0.00 75 1010.9
20260901211326 84 249 0.0 0.0 0.00 0.07 0.00 77 1010.9
20260901211224 84 249 0.0 0.0 0.00 0.07 0.00 76 1010.8
20260901211117 84 249 0.0 0.0 0.00 0.07 0.00 78 1010.8
20260901211011 84 279 0.0 0.0 0.00 0.07 0.00 78 1010.9
20260901210906 84 279 0.0 0.0 0.00 0.07 0.00 77 1010.9
20260901210542 83 280 0.0 0.0 0.00 0.07 0.00 77 1010.8
20260901210436 83 280 0.0 0.0 0.00 0.07 0.00 76 1010.8
20260901210108 84 279 0.0 0.0 0.00 0.07 0.00 76 1010.9
20260901210005 83 281 0.0 3.0 0.00 0.07 0.00 75 1010.9
20260901205859 84 281 0.0 3.0 0.00 0.07 0.00 75 1010.9
20260901205751 84 276 0.0 2.0 0.00 0.07 0.00 75 1011.0